パンスターズ彗星

C/2017 P2 ( PanSTARRS )

English version
Home page
Updated on September 23, 2018

---------------------------------------------------------------------

・ プロフィール

発見日 2017年8月14日
発見光度 21.9等
発見者 Pan-STARRS 1 telescope (Haleakala)

・ 軌道要素

Epoch 2017 Nov. 23.0 TT = JDT 2458080.5
T 2017 Dec. 6.56799 TT                                  MPCW
q   2.4617662            (2000.0)            P               Q
z  +0.0008126      Peri.  132.24062     +0.53240058     +0.82456028
 +/-0.0000051      Node   165.54619     -0.80185520     +0.41878812
e   0.9979997      Incl.   50.08491     +0.27125240     -0.38041669
From 49 observations 2017 Aug. 14-2018 June 17, mean residual 0".3.

・ 光度変化

        m1 = 15.0 + 5 logΔ + 10.0 log r

---------------------------------------------------------------------

軌道要素はM.P.E.C. 2018-S50に掲載されたものです。
光度グラフはComet for Windowsで作成したものです。

---------------------------------------------------------------------

Copyright(C) Seiichi Yoshida (comet@aerith.net). All rights reserved.